Location: Battery Park City
(40.7115°N, 74.0163°W)
Time: 22:11:20
(UTC+00:00)

STARLINK-52 - Pass Details

Date: 08 December 2019
Orbit: 442 x 445 km, 53.0° (Epoch: 17 January)

Event Time Altitude Azimuth Distance (km) Brightness Sun altitude
Rises 23:06:22 0° 225° (SW) 2,418 8.0 -17.9°
Reaches altitude 10° 23:08:29 10° 223° (SW) 1,552 6.8 -18.3°
Maximum altitude 23:11:57 72° 139° (SE) 467 3.1 -19.0°
Enters shadow 23:12:18 65° 92° (E) 489 3.0 -19.0°
